• In Uzbekistan
  • List of Countries
  • For 7 days
  • Water Temperature
  • Satellite Maps
  • Weather Map
  • Weather Widgets
  • user-avatar
    Login

    Hourly Weather Baraut

    Today, 15 December, Friday

    Time Temperature Precipitation Wind Pressure Humidity
    00:00 +14°C° 0 mm 2 mps 743 mmHg 53%
    01:00 +14°C° 0 mm 2 mps 743 mmHg 54%
    02:00 +13°C° 0 mm 2 mps 743 mmHg 55%
    03:00 +13°C° 0 mm 2 mps 743 mmHg 56%
    04:00 +12°C° 0 mm 3 mps 743 mmHg 57%
    05:00 +12°C° 0 mm 2 mps 743 mmHg 60%
    06:00 +12°C° 0 mm 2 mps 743 mmHg 58%
    07:00 +12°C° 0 mm 3 mps 743 mmHg 56%
    08:00 +12°C° 0 mm 3 mps 744 mmHg 54%
    09:00 +16°C° 0 mm 3 mps 744 mmHg 46%
    10:00 +18°C° 0 mm 3 mps 744 mmHg 38%
    11:00 +19°C° 0 mm 3 mps 745 mmHg 33%
    12:00 +20°C° 0 mm 3 mps 745 mmHg 30%
    13:00 +21°C° 0 mm 4 mps 744 mmHg 27%
    14:00 +22°C° 0 mm 4 mps 744 mmHg 24%
    15:00 +21°C° 0 mm 4 mps 744 mmHg 27%
    16:00 +20°C° 0 mm 3 mps 743 mmHg 29%
    17:00 +17°C° 0 mm 2 mps 743 mmHg 34%
    18:00 +17°C° 0 mm 3 mps 744 mmHg 35%
    19:00 +16°C° 0 mm 3 mps 744 mmHg 36%
    20:00 +14°C° 0 mm 3 mps 744 mmHg 37%
    21:00 +14°C° 0 mm 3 mps 744 mmHg 38%
    22:00 +14°C° 0 mm 3 mps 744 mmHg 38%
    23:00 +13°C° 0 mm 3 mps 744 mmHg 38%

    Tomorrow, 16 December, Saturday

    Time Temperature Precipitation Wind Pressure Humidity
    00:00 +13°C° 0 mm 3 mps 744 mmHg 39%
    01:00 +12°C° 0 mm 3 mps 744 mmHg 39%
    02:00 +12°C° 0 mm 3 mps 743 mmHg 40%
    03:00 +12°C° 0 mm 3 mps 743 mmHg 40%
    04:00 +11°C° 0 mm 3 mps 743 mmHg 40%
    05:00 +11°C° 0 mm 3 mps 743 mmHg 41%
    06:00 +11°C° 0 mm 3 mps 744 mmHg 40%
    07:00 +12°C° 0 mm 3 mps 744 mmHg 39%
    08:00 +12°C° 0 mm 3 mps 744 mmHg 38%
    09:00 +14°C° 0 mm 4 mps 745 mmHg 34%
    10:00 +18°C° 0 mm 4 mps 745 mmHg 29%
    11:00 +20°C° 0 mm 4 mps 745 mmHg 25%
    12:00 +21°C° 0 mm 4 mps 745 mmHg 23%
    13:00 +22°C° 0 mm 4 mps 744 mmHg 21%
    14:00 +23°C° 0 mm 4 mps 743 mmHg 20%
    15:00 +21°C° 0 mm 4 mps 743 mmHg 22%
    16:00 +20°C° 0 mm 3 mps 743 mmHg 24%
    17:00 +18°C° 0 mm 3 mps 743 mmHg 26%
    18:00 +18°C° 0 mm 3 mps 743 mmHg 27%
    19:00 +17°C° 0 mm 3 mps 744 mmHg 28%
    20:00 +16°C° 0 mm 3 mps 744 mmHg 29%
    21:00 +16°C° 0 mm 3 mps 744 mmHg 30%
    22:00 +14°C° 0 mm 3 mps 744 mmHg 30%
    23:00 +14°C° 0 mm 3 mps 745 mmHg 31%

    Day after tomorrow, 17 December, Sunday

    Time Temperature Precipitation Wind Pressure Humidity
    00:00 +13°C° 0 mm 3 mps 745 mmHg 31%
    01:00 +13°C° 0 mm 3 mps 745 mmHg 32%
    02:00 +12°C° 0 mm 3 mps 745 mmHg 33%
    03:00 +12°C° 0 mm 3 mps 744 mmHg 33%
    04:00 +12°C° 0 mm 3 mps 744 mmHg 34%
    05:00 +11°C° 0 mm 3 mps 744 mmHg 34%
    06:00 +12°C° 0 mm 3 mps 744 mmHg 34%
    07:00 +12°C° 0 mm 3 mps 745 mmHg 33%
    08:00 +12°C° 0 mm 3 mps 745 mmHg 33%
    09:00 +16°C° 0 mm 3 mps 746 mmHg 28%
    10:00 +18°C° 0 mm 3 mps 746 mmHg 24%
    11:00 +21°C° 0 mm 3 mps 746 mmHg 20%
    12:00 +22°C° 0 mm 3 mps 745 mmHg 18%
    13:00 +23°C° 0 mm 4 mps 745 mmHg 17%
    14:00 +25°C° 0 mm 4 mps 744 mmHg 15%
    15:00 +24°C° 0 mm 3 mps 744 mmHg 18%
    16:00 +21°C° 0 mm 3 mps 743 mmHg 20%
    17:00 +20°C° 0 mm 3 mps 743 mmHg 22%
    18:00 +19°C° 0 mm 3 mps 744 mmHg 23%
    19:00 +18°C° 0 mm 3 mps 744 mmHg 23%
    20:00 +17°C° 0 mm 3 mps 744 mmHg 24%
    21:00 +17°C° 0 mm 3 mps 744 mmHg 25%
    22:00 +16°C° 0 mm 3 mps 744 mmHg 25%
    23:00 +16°C° 0 mm 3 mps 744 mmHg 26%

    18 December, Monday

    Time Temperature Precipitation Wind Pressure Humidity
    00:00 +16°C° 0 mm 3 mps 744 mmHg 26%
    01:00 +14°C° 0 mm 3 mps 743 mmHg 27%
    02:00 +14°C° 0 mm 3 mps 743 mmHg 27%
    03:00 +13°C° 0 mm 3 mps 743 mmHg 28%
    04:00 +13°C° 0 mm 3 mps 743 mmHg 28%
    05:00 +13°C° 0 mm 3 mps 743 mmHg 28%
    06:00 +13°C° 0 mm 3 mps 743 mmHg 28%
    07:00 +13°C° 0 mm 3 mps 744 mmHg 28%
    08:00 +14°C° 0 mm 3 mps 744 mmHg 29%
    09:00 +17°C° 0 mm 3 mps 744 mmHg 26%
    10:00 +20°C° 0 mm 3 mps 744 mmHg 23%
    11:00 +22°C° 0 mm 3 mps 745 mmHg 20%
    12:00 +23°C° 0 mm 4 mps 744 mmHg 19%
    13:00 +26°C° 0 mm 4 mps 743 mmHg 18%
    14:00 +27°C° 0 mm 4 mps 743 mmHg 17%
    15:00 +25°C° 0 mm 4 mps 742 mmHg 19%
    16:00 +24°C° 0 mm 3 mps 742 mmHg 21%
    17:00 +21°C° 0 mm 3 mps 742 mmHg 23%
    18:00 +20°C° 0 mm 2 mps 743 mmHg 23%
    19:00 +19°C° 0 mm 2 mps 743 mmHg 23%
    20:00 +19°C° 0 mm 2 mps 743 mmHg 24%
    21:00 +18°C° 0 mm 2 mps 743 mmHg 24%
    22:00 +17°C° 0 mm 2 mps 743 mmHg 24%
    23:00 +17°C° 0 mm 2 mps 744 mmHg 24%

    19 December, Tuesday

    Time Temperature Precipitation Wind Pressure Humidity
    00:00 +17°C° 0 mm 2 mps 743 mmHg 25%
    01:00 +16°C° 0 mm 2 mps 743 mmHg 25%
    02:00 +16°C° 0 mm 2 mps 743 mmHg 26%
    03:00 +15°C° 0 mm 2 mps 743 mmHg 26%
    04:00 +15°C° 0 mm 2 mps 743 mmHg 26%
    05:00 +14°C° 0 mm 2 mps 743 mmHg 27%
    06:00 +15°C° 0 mm 2 mps 743 mmHg 27%
    07:00 +15°C° 0 mm 2 mps 744 mmHg 28%
    08:00 +15°C° 0 mm 2 mps 744 mmHg 29%
    09:00 +18°C° 0 mm 3 mps 745 mmHg 26%
    10:00 +20°C° 0 mm 3 mps 745 mmHg 23%
    11:00 +24°C° 0 mm 3 mps 745 mmHg 20%
    12:00 +25°C° 0 mm 3 mps 744 mmHg 19%
    13:00 +26°C° 0 mm 4 mps 743 mmHg 18%
    14:00 +27°C° 0 mm 4 mps 743 mmHg 17%
    15:00 +25°C° 0 mm 3 mps 743 mmHg 19%
    16:00 +24°C° 0 mm 3 mps 743 mmHg 22%
    17:00 +21°C° 0 mm 2 mps 742 mmHg 24%
    18:00 +20°C° 0 mm 2 mps 743 mmHg 25%
    19:00 +19°C° 0 mm 2 mps 743 mmHg 25%
    20:00 +18°C° 0 mm 2 mps 744 mmHg 26%
    21:00 +18°C° 0 mm 2 mps 744 mmHg 26%
    22:00 +17°C° 0 mm 2 mps 744 mmHg 27%
    23:00 +17°C° 0 mm 2 mps 744 mmHg 27%

    20 December, Wednesday

    Time Temperature Precipitation Wind Pressure Humidity
    00:00 +17°C° 0 mm 2 mps 744 mmHg 27%
    01:00 +16°C° 0 mm 2 mps 744 mmHg 27%
    02:00 +16°C° 0 mm 2 mps 743 mmHg 27%
    03:00 +16°C° 0 mm 2 mps 743 mmHg 28%
    04:00 +15°C° 0 mm 2 mps 743 mmHg 28%
    05:00 +15°C° 0 mm 2 mps 743 mmHg 29%
    06:00 +15°C° 0 mm 2 mps 744 mmHg 30%
    07:00 +15°C° 0 mm 2 mps 745 mmHg 31%
    08:00 +16°C° 0 mm 2 mps 745 mmHg 32%
    09:00 +18°C° 0 mm 2 mps 746 mmHg 28%
    10:00 +20°C° 0 mm 2 mps 746 mmHg 25%
    11:00 +23°C° 0 mm 2 mps 746 mmHg 22%
    12:00 +24°C° 0 mm 2 mps 745 mmHg 20%
    13:00 +25°C° 0 mm 3 mps 745 mmHg 19%
    14:00 +26°C° 0 mm 3 mps 744 mmHg 18%
    15:00 +25°C° 0 mm 2 mps 744 mmHg 20%
    16:00 +23°C° 0 mm 2 mps 744 mmHg 22%
    17:00 +21°C° 0 mm 2 mps 744 mmHg 24%
    18:00 +20°C° 0 mm 2 mps 744 mmHg 25%
    19:00 +19°C° 0 mm 2 mps 744 mmHg 25%
    20:00 +18°C° 0 mm 2 mps 745 mmHg 26%
    21:00 +18°C° 0 mm 2 mps 745 mmHg 27%
    22:00 +17°C° 0 mm 2 mps 745 mmHg 27%
    23:00 +17°C° 0 mm 2 mps 745 mmHg 28%
    Show more